THORAD AGENA D DEB, 4774

Orbit data source: Space-Track

THORAD AGENA D DEB, 4774 is space debris in SSO originally from a launch on Wed, 08 Apr 1970 UTC launched from the Air Force Western Test Range (AFWTR). Debris objects in space refer to the collection of defunct objects orbiting the Earth. Examples of debris include non-operational satellites, rocket bodies, and fragments generated from explosions, collisions, or faulty payload assembly.

Loading next visibility...
Identifier
4774, 1970-025DU
Orbit
SSO
Country
Flag of USUS
Related business
Manufacturer
Unknown
Mission
Spacecraft
Bus & Motor
Unknown
Mass
Unknown
Launch date (UTC)
1970-04-08 (56 years ago)
Launch vehicle
Unknown
Launch site
Air Force Western Test Range (AFWTR)
Object type
Payload
Rocket body
Debris
Shape & HBR
Unknown shape, 0.1 m
Radar Cross Section
Medium (>0.1 m² and <1 m²)

Expand to show TLE details & history
Last TLE update: 1 day ago

TLE from 1 day ago
0 THORAD AGENA D DEB
1 04774U 70025DU  26256.31285066  .00000956  00000-0  91621-3 0  9990
2 04774  99.7605  34.3660 0040947 229.7089 191.7661 13.82763699802794
Epoch: 2026-09-13T07:30Z
TLE epoch observation values (Epoch: 2026-09-13T07:30:30.297Z)
Latitude
59.99031°
Longitude
-87.80431°
Altitude
993.627 km
Speed
7.346 km/s
True Right ascension
01h 08m 31s
True Declination
59° 50' 45"
Sunlit
Object was in daylight at epoch
Visualization orbit readout
Latitude
Unknown
Longitude
Unknown
Altitude
Unknown
Speed
Unknown
Apparent Right ascension
Unknown
Apparent Declination
Unknown
Sunlit
N/A
Visualization observer readout
Local Sidereal Time
23:51:03
Azimuth
Unknown
Elevation
Unknown
Doppler factor
Unknown
Orbital elements
Apogee altitude
981.374 km
Perigee altitude
921.349 km
Semi-major axis
7,329.498 km
Eccentricity
0.00409
Inclination
99.7605°
RAAN
34.366°
Arg. of periapsis
229.7089°
True anomaly
191.6709°
Mean anomaly
191.7661°
Eccentric anomaly
191.71845°
Mean motion
3.45885 °/min
Orbital period
104.08 mins
BSTAR
0.00091621
Loading maneuver chart data...
Computing Atmospheric mass density...

Documentation

Showing up to 5 results
|